Location: Arroyo Retuerta
(40.5469°N, 4.3534°W)
Time: 00:55:59
(UTC+00:00)

Cosmos 1992 Rocket - Visible Passes

Search period start: 14 June 2021 00:00
Search period end: 24 June 2021 00:00
Orbit: 758 x 766 km, 74.0° (Epoch: 13 June)

Date Brightness Start Highest point End Pass type
(mag) Time Alt. Az. Time Alt. Az. Time Alt. Az.
14 Jun 4.8 00:28:08 39° W 00:29:01 42° WNW 00:34:00 10° N visible
14 Jun 6.1 22:09:34 12° E 22:09:34 12° E 22:10:51 10° ENE visible
14 Jun 3.9 23:49:41 70° WSW 23:50:07 76° WNW 23:55:23 10° NNE visible
15 Jun 6.6 01:32:05 10° WNW 01:33:00 10° NW 01:33:55 10° NW visible
15 Jun 4.0 23:11:11 60° ESE 23:11:21 61° ESE 23:16:30 10° NNE visible
16 Jun 6.1 00:51:18 13° W 00:53:43 18° WNW 00:57:14 10° NNW visible
16 Jun 4.8 22:32:39 33° ESE 22:32:41 33° E 22:37:20 10° NE visible
17 Jun 5.5 00:12:45 24° W 00:14:36 29° WNW 00:19:10 10° N visible
17 Jun 5.5 21:54:03 19° E 21:54:09 19° E 21:57:40 10° NE visible
17 Jun 4.6 23:34:09 39° WSW 23:35:36 51° WNW 23:40:42 10° N visible
18 Jun 3.9 22:55:30 54° SSW 22:56:44 90° WNW 23:02:00 10° NNE visible
19 Jun 6.5 00:37:18 10° WNW 00:39:27 12° NW 00:41:36 10° NNW visible
19 Jun 4.2 22:16:46 41° SE 22:17:59 50° ESE 22:23:03 10° NNE visible
19 Jun 6.1 23:56:52 12° WSW 00:00:13 21° WNW 00:04:08 10° N visible
20 Jun 5.0 21:37:59 25° SE 21:39:22 28° E 21:43:45 10° NE visible
20 Jun 5.3 23:18:04 19° WSW 23:21:08 35° WNW 23:25:55 10° N visible
21 Jun 5.6 20:59:05 13° ESE 21:00:51 15° E 21:03:49 10° ENE visible
21 Jun 4.4 22:39:09 24° SW 22:42:11 61° WNW 22:47:23 10° NNE visible
22 Jun 3.9 22:00:07 23° S 22:03:21 76° ESE 22:08:36 10° NNE visible
22 Jun 6.6 23:43:03 10° W 23:45:55 15° NW 23:48:47 10° NNW visible
23 Jun 4.4 21:20:56 16° SSE 21:24:39 42° ESE 21:29:33 10° NNE visible
23 Jun 6.0 23:02:32 10° WSW 23:06:44 24° WNW 23:10:58 10° N visible
